User: anonymous   Login
Location: The Saddle
(36.8333°N, 80.3417°W)
Time: 23:30:09
(UTC-04:00)
Language:

Tiros 1 - Orbit

View from above orbital plane
View from above orbital plane
View from above satellite
View from above satellite

Ground track
Ground track

The orbit data is extracted from the following two-line orbital elements,

1 00029U 60002B   24194.51339868  .00001275  00000-0  21045-3 0  9992
2 00029  48.3784 128.9520 0022880 116.7572 243.5685 14.76467366437909
Epoch (UTC): 12 July 2024 12:19:17
Eccentricity: 0.0022880
inclination: 48.3784°
perigee height: 624 km
apogee height: 656 km
right ascension of ascending node: 128.9520°
argument of perigee: 116.7572°
revolutions per day: 14.76467366
mean anomaly at epoch: 243.5685°
orbit number at epoch: 43790

The dashed part of the orbit path shows where the satellite is in the earth's shadow,  

DLR